World > North America > United States > New York > Ridgemont

Hourly Ridgemont, NY Regional Weather

Feedback E-mail the Weather

Quick WX

Ridgemont, NY Weather Maps

°F °C°F °C
Ridgemont Weather Map
UTC Time: 8/8/2022, 20:05
Your Time:

Ridgemont, NY Regional Weather

Expires:202208082000;;690175
ASUS41 KALY 081910
RWRALY

NEW YORK STATE HOURLY WEATHER ROUNDUP
NATIONAL WEATHER SERVICE ALBANY NY
300 PM EDT MON AUG 08 2022

NOTE: "FAIR" INDICATES FEW OR NO CLOUDS BELOW 12,000 FEET WITH NO
SIGNIFICANT WEATHER AND/OR NO OBSTRUCTIONS TO VISIBILITY.


NYZ001>004-010>016-019>021-085-082000-
WEST

  
CITY           SKY/WX    TMP DP  RH WIND       PRES   REMARKS
NIAGARA FALLS  PTSUNNY   81  73  76 SW20G26   29.87F                  
BUFFALO        CLOUDY    77  72  84 SW26G39   29.89F                  
DUNKIRK        CLOUDY    81  74  79 SW12      29.93F                  
JAMESTOWN      CLOUDY    77  71  82 SW15G21   30.00F                  
WELLSVILLE     LGT RAIN  75  70  84 SW9G18    30.04S                  
ROCHESTER      CLOUDY    81  69  67 W16       29.88F                  
PENN YAN       CLOUDY    82  71  69 SW10G21   29.92F                  
$$

             KEY
       WCI = WIND CHILL INDEX
       VSB = VISIBILITY
       HX  = HEAT INDEX
$$
  

SKY/WX - Weather  TMP - Temperature  DP - Dew Point  RH - Humidity
WIND - Wind Direction/Speed PRES - Barometric Pressure VSB - Visibility
WCI - Wind Chill Index E13G22 Wind - East Wind 13 mph/Gusts of 22 mph

Trending Headlines

Ridgemont Radar Loop



Ridgemont Quick Facts


National Two Day Weather Forecast


E-mail the Ridgemont Weather Forecast

Voice your opinion or tell us about page issues...